| time (UTC) | temp F | wind direction | speed MPH | gust MPH | rain 1hr in | rain 24hr in | rain mn in | humidity % | barometer mb |
| 20260507090208 | 33 | 180 | 1.0 | 4.0 | 0.00 | 0.72 | 0.00 | 92 | 1015.9 |
| 20260507085218 | 33 | 135 | 2.0 | 4.0 | 0.00 | 0.72 | 0.00 | 92 | 1016.0 |
| 20260507084358 | 32 | 270 | 2.0 | 5.0 | 0.00 | 0.72 | 0.00 | 92 | 1015.9 |
| 20260507083413 | 32 | 270 | 2.0 | 4.0 | 0.00 | 0.72 | 0.00 | 93 | 1015.9 |
| 20260507082541 | 32 | 270 | 2.0 | 5.0 | 0.00 | 0.72 | 0.00 | 92 | 1015.9 |
| 20260507080834 | 32 | 0 | 0.0 | 2.0 | 0.00 | 0.72 | 0.00 | 92 | 1016.4 |
| 20260507075001 | 32 | 135 | 1.0 | 4.0 | 0.00 | 0.73 | 0.00 | 92 | 1016.6 |
| 20260507074018 | 32 | 135 | 1.0 | 3.0 | 0.00 | 0.73 | 0.00 | 92 | 1016.7 |
| 20260507073158 | 32 | 135 | 2.0 | 3.0 | 0.00 | 0.73 | 0.00 | 92 | 1016.8 |
| 20260507072241 | 31 | 158 | 2.0 | 3.0 | 0.00 | 0.73 | 0.00 | 92 | 1016.8 |
| 20260507071348 | 31 | 0 | 0.0 | 2.0 | 0.00 | 0.73 | 0.00 | 91 | 1016.8 |
| 20260507070426 | 31 | 292 | 1.0 | 2.0 | 0.00 | 0.73 | 0.00 | 91 | 1016.8 |
| 20260507065513 | 31 | 0 | 0.0 | 2.0 | 0.00 | 0.73 | 0.00 | 91 | 1016.9 |
| 20260507064642 | 31 | 248 | 1.0 | 3.0 | 0.00 | 0.73 | 0.00 | 91 | 1017.1 |
| 20260507063912 | 32 | 0 | 0.0 | 1.0 | 0.00 | 0.73 | 0.00 | 91 | 1017.3 |
| 20260507063745 | 32 | 0 | 0.0 | 1.0 | 0.00 | 0.73 | 0.00 | 91 | 1017.3 |
| 20260507063004 | 32 | 0 | 0.0 | 2.0 | 0.00 | 0.73 | 0.00 | 90 | 1017.5 |
| 20260507062858 | 32 | 0 | 0.0 | 2.0 | 0.00 | 0.73 | 0.00 | 90 | 1017.5 |
| 20260507062004 | 32 | 225 | 1.0 | 3.0 | 0.00 | 0.73 | 0.00 | 90 | 1017.6 |
| 20260507060058 | 32 | 225 | 2.0 | 3.0 | 0.00 | 0.73 | 0.00 | 90 | 1017.7 |
| 20260507055148 | 32 | 248 | 2.0 | 5.0 | 0.00 | 0.74 | 0.00 | 91 | 1017.9 |
| 20260507054333 | 32 | 248 | 3.0 | 6.0 | 0.00 | 0.74 | 0.00 | 91 | 1017.9 |
| 20260507053433 | 32 | 270 | 1.0 | 2.0 | 0.00 | 0.74 | 0.00 | 90 | 1018.0 |
| 20260507052541 | 32 | 202 | 1.0 | 3.0 | 0.00 | 0.74 | 0.00 | 89 | 1018.2 |
| 20260507051543 | 32 | 0 | 0.0 | 1.0 | 0.00 | 0.74 | 0.00 | 89 | 1018.3 |
| 20260507050558 | 32 | 0 | 0.0 | 1.0 | 0.00 | 0.74 | 0.00 | 88 | 1018.4 |
| 20260507045753 | 32 | 248 | 2.0 | 3.0 | 0.00 | 0.74 | 0.00 | 88 | 1018.6 |
| 20260507044848 | 32 | 270 | 1.0 | 2.0 | 0.00 | 0.74 | 0.00 | 88 | 1018.6 |
| 20260507044119 | 32 | 270 | 1.0 | 2.0 | 0.00 | 0.74 | 0.00 | 88 | 1018.7 |
| 20260507044041 | 32 | 270 | 1.0 | 2.0 | 0.00 | 0.74 | 0.00 | 88 | 1018.7 |
| 20260507043501 | 33 | 0 | 0.0 | 1.0 | 0.00 | 0.74 | 0.00 | 87 | 1018.8 |
| 20260507043221 | 33 | 0 | 0.0 | 1.0 | 0.00 | 0.74 | 0.00 | 87 | 1018.8 |
| 20260507042400 | 33 | 270 | 1.0 | 3.0 | 0.00 | 0.75 | 0.00 | 87 | 1018.9 |
| 20260507042243 | 33 | 270 | 1.0 | 3.0 | 0.00 | 0.75 | 0.00 | 87 | 1018.9 |
| 20260507041258 | 33 | 270 | 1.0 | 3.0 | 0.00 | 0.75 | 0.00 | 87 | 1019.0 |
| 20260507040459 | 33 | 270 | 3.0 | 5.0 | 0.00 | 0.75 | 0.00 | 86 | 1018.9 |
| 20260507040303 | 33 | 270 | 3.0 | 5.0 | 0.00 | 0.75 | 0.00 | 86 | 1018.9 |
| 20260507035418 | 33 | 248 | 2.0 | 5.0 | 0.00 | 0.75 | 0.00 | 86 | 1019.0 |
| 20260507034523 | 34 | 270 | 2.0 | 6.0 | 0.00 | 0.75 | 0.00 | 85 | 1019.1 |
| 20260507033538 | 34 | 270 | 1.0 | 3.0 | 0.00 | 0.75 | 0.00 | 84 | 1019.3 |
| 20260507032720 | 34 | 0 | 0.0 | 1.0 | 0.00 | 0.75 | 0.00 | 84 | 1019.3 |
| 20260507032558 | 34 | 0 | 0.0 | 1.0 | 0.00 | 0.75 | 0.00 | 84 | 1019.3 |
| 20260507031658 | 34 | 0 | 0.0 | 1.0 | 0.00 | 0.75 | 0.00 | 83 | 1019.1 |
| 20260507030818 | 35 | 0 | 0.0 | 1.0 | 0.00 | 0.75 | 0.00 | 82 | 1019.1 |
| 20260507025843 | 35 | 0 | 0.0 | 2.0 | 0.00 | 0.75 | 0.00 | 82 | 1019.0 |
| 20260507025003 | 36 | 0 | 0.0 | 1.0 | 0.00 | 0.75 | 0.00 | 81 | 1019.0 |
| 20260507024057 | 37 | 0 | 0.0 | 2.0 | 0.00 | 0.76 | 0.00 | 80 | 1018.9 |
| 20260507024008 | 37 | 0 | 0.0 | 2.0 | 0.00 | 0.76 | 0.00 | 80 | 1018.9 |
| 20260507022048 | 37 | 248 | 2.0 | 4.0 | 0.00 | 0.76 | 0.00 | 79 | 1018.8 |
| 20260507021357 | 38 | 180 | 3.0 | 5.0 | 0.00 | 0.76 | 0.00 | 78 | 1018.7 |
| 20260507021143 | 38 | 180 | 3.0 | 5.0 | 0.00 | 0.76 | 0.00 | 78 | 1018.7 |
| 20260507020258 | 38 | 180 | 3.0 | 7.0 | 0.00 | 0.76 | 0.00 | 77 | 1018.5 |
| 20260507014648 | 38 | 202 | 2.0 | 6.0 | 0.00 | 0.76 | 0.00 | 77 | 1018.5 |
| 20260507013818 | 39 | 180 | 3.0 | 5.0 | 0.00 | 0.76 | 0.00 | 76 | 1018.5 |
| 20260507012818 | 39 | 180 | 4.0 | 11.0 | 0.00 | 0.76 | 0.00 | 75 | 1018.4 |
| 20260507011908 | 39 | 180 | 4.0 | 9.0 | 0.00 | 0.76 | 0.00 | 75 | 1018.4 |
| 20260507010938 | 39 | 180 | 4.0 | 10.0 | 0.00 | 0.76 | 0.00 | 74 | 1018.5 |
| 20260507010041 | 40 | 180 | 5.0 | 13.0 | 0.00 | 0.76 | 0.00 | 74 | 1018.6 |
| 20260507005430 | 40 | 180 | 4.0 | 9.0 | 0.00 | 0.76 | 0.00 | 74 | 1018.6 |
| 20260507005148 | 40 | 180 | 4.0 | 9.0 | 0.00 | 0.76 | 0.00 | 74 | 1018.6 |
| 20260507004221 | 40 | 180 | 5.0 | 10.0 | 0.00 | 0.76 | 0.00 | 73 | 1018.6 |
| 20260507003233 | 40 | 158 | 4.0 | 9.0 | 0.00 | 0.76 | 0.00 | 75 | 1018.6 |
| 20260507002401 | 40 | 180 | 5.0 | 10.0 | 0.00 | 0.77 | 0.00 | 74 | 1018.8 |
| 20260507001501 | 40 | 180 | 4.0 | 10.0 | 0.00 | 0.77 | 0.00 | 73 | 1019.0 |
| 20260507000508 | 40 | 180 | 5.0 | 11.0 | 0.00 | 0.77 | 0.00 | 73 | 1019.1 |
| 20260506235603 | 40 | 158 | 4.0 | 12.0 | 0.00 | 0.77 | 0.00 | 73 | 1019.2 |
| 20260506234748 | 40 | 180 | 6.0 | 11.0 | 0.00 | 0.77 | 0.00 | 73 | 1019.3 |
| 20260506233806 | 41 | 158 | 5.0 | 10.0 | 0.00 | 0.77 | 0.00 | 73 | 1019.4 |
| 20260506232838 | 40 | 158 | 5.0 | 10.0 | 0.00 | 0.77 | 0.00 | 74 | 1019.5 |
| 20260506232008 | 40 | 158 | 6.0 | 12.0 | 0.00 | 0.77 | 0.00 | 73 | 1019.5 |
| 20260506230248 | 41 | 158 | 5.0 | 12.0 | 0.00 | 0.77 | 0.00 | 73 | 1019.4 |
| 20260506225504 | 41 | 135 | 4.0 | 9.0 | 0.00 | 0.77 | 0.00 | 72 | 1019.7 |
| 20260506225412 | 41 | 135 | 4.0 | 9.0 | 0.00 | 0.77 | 0.00 | 72 | 1019.7 |
| 20260506224558 | 41 | 180 | 5.0 | 13.0 | 0.00 | 0.77 | 0.00 | 72 | 1019.7 |
| 20260506223917 | 41 | 202 | 4.0 | 10.0 | 0.00 | 0.77 | 0.00 | 74 | 1019.7 |
| 20260506223713 | 41 | 202 | 4.0 | 10.0 | 0.00 | 0.77 | 0.00 | 74 | 1019.7 |
| 20260506222753 | 41 | 180 | 5.0 | 12.0 | 0.00 | 0.77 | 0.00 | 72 | 1019.8 |
| 20260506220918 | 42 | 180 | 4.0 | 9.0 | 0.01 | 0.78 | 0.00 | 73 | 1020.1 |
| 20260506220742 | 41 | 180 | 4.0 | 9.0 | 0.01 | 0.78 | 0.00 | 74 | 1020.2 |
| 20260506220113 | 41 | 180 | 4.0 | 9.0 | 0.01 | 0.78 | 0.00 | 74 | 1020.2 |
| 20260506215138 | 41 | 158 | 4.0 | 10.0 | 0.02 | 0.78 | 0.00 | 74 | 1020.4 |
| 20260506214505 | 41 | 158 | 3.0 | 7.0 | 0.04 | 0.78 | 0.00 | 75 | 1020.5 |
| 20260506214228 | 41 | 158 | 3.0 | 7.0 | 0.04 | 0.78 | 0.00 | 75 | 1020.5 |
| 20260506212505 | 41 | 180 | 4.0 | 9.0 | 0.07 | 0.78 | 0.00 | 76 | 1020.7 |
| 20260506212353 | 41 | 180 | 4.0 | 9.0 | 0.07 | 0.78 | 0.00 | 76 | 1020.7 |
| 20260506211420 | 41 | 180 | 3.0 | 6.0 | 0.07 | 0.78 | 0.00 | 74 | 1020.7 |
| 20260506205623 | 41 | 202 | 3.0 | 9.0 | 0.08 | 0.78 | 0.00 | 73 | 1021.0 |
| 20260506205548 | 41 | 202 | 3.0 | 9.0 | 0.08 | 0.78 | 0.00 | 73 | 1021.0 |
| 20260506204711 | 41 | 202 | 2.0 | 4.0 | 0.08 | 0.79 | 0.00 | 76 | 1021.2 |
| 20260506203713 | 41 | 202 | 2.0 | 6.0 | 0.07 | 0.78 | 0.00 | 76 | 1021.3 |
| 20260506202741 | 40 | 248 | 3.0 | 7.0 | 0.07 | 0.77 | 0.00 | 79 | 1021.4 |
| 20260506201821 | 39 | 225 | 2.0 | 5.0 | 0.08 | 0.77 | 0.00 | 78 | 1021.6 |
| 20260506200904 | 39 | 248 | 3.0 | 5.0 | 0.09 | 0.76 | 0.00 | 78 | 1021.7 |
| 20260506200018 | 38 | 248 | 1.0 | 4.0 | 0.10 | 0.78 | 0.00 | 74 | 1021.8 |
| 20260506195917 | 38 | 135 | 2.0 | 4.0 | 0.12 | 0.79 | 0.00 | 73 | 1021.7 |
| 20260506195118 | 38 | 135 | 2.0 | 4.0 | 0.12 | 0.79 | 0.00 | 73 | 1021.7 |
| 20260506194303 | 38 | 22 | 1.0 | 3.0 | 0.14 | 0.78 | 0.00 | 71 | 1021.8 |
| 20260506193433 | 38 | 22 | 3.0 | 5.0 | 0.17 | 0.78 | 0.00 | 73 | 1021.9 |
| 20260506192453 | 39 | 112 | 2.0 | 6.0 | 0.21 | 0.76 | 0.00 | 80 | 1021.9 |
| 20260506191638 | 38 | 68 | 3.0 | 6.0 | 0.22 | 0.75 | 0.00 | 76 | 1022.0 |
| 20260506190736 | 38 | 45 | 1.0 | 4.0 | 0.26 | 0.74 | 0.00 | 73 | 1022.0 |
| 20260506185801 | 38 | 338 | 1.0 | 3.0 | 0.30 | 0.73 | 0.00 | 71 | 1022.1 |
| 20260506184929 | 38 | 45 | 3.0 | 5.0 | 0.30 | 0.70 | 0.00 | 74 | 1022.2 |
| 20260506184013 | 38 | 22 | 3.0 | 6.0 | 0.28 | 0.67 | 0.00 | 72 | 1022.2 |
| 20260506183148 | 38 | 22 | 2.0 | 5.0 | 0.27 | 0.65 | 0.00 | 77 | 1022.3 |
| 20260506182213 | 37 | 45 | 2.0 | 4.0 | 0.23 | 0.59 | 0.00 | 80 | 1022.4 |
| 20260506181248 | 37 | 68 | 3.0 | 6.0 | 0.19 | 0.54 | 0.00 | 81 | 1022.5 |
| 20260506180505 | 38 | 0 | 1.0 | 3.0 | 0.14 | 0.48 | 0.00 | 85 | 1022.5 |
| 20260506180338 | 38 | 0 | 1.0 | 3.0 | 0.14 | 0.48 | 0.00 | 85 | 1022.5 |
| 20260506175413 | 38 | 0 | 3.0 | 7.0 | 0.10 | 0.44 | 0.00 | 86 | 1022.5 |
| 20260506174613 | 38 | 0 | 3.0 | 6.0 | 0.08 | 0.42 | 0.00 | 87 | 1022.5 |
| 20260506173913 | 37 | 338 | 3.0 | 5.0 | 0.07 | 0.42 | 0.00 | 89 | 1022.4 |
| 20260506173628 | 37 | 338 | 3.0 | 5.0 | 0.07 | 0.42 | 0.00 | 89 | 1022.4 |
| 20260506172659 | 36 | 22 | 4.0 | 7.0 | 0.06 | 0.40 | 0.00 | 89 | 1022.5 |
| 20260506171758 | 35 | 338 | 1.0 | 4.0 | 0.06 | 0.40 | 0.00 | 92 | 1022.5 |
| 20260506171027 | 34 | 338 | 3.0 | 6.0 | 0.06 | 0.40 | 0.00 | 92 | 1022.4 |
| 20260506170823 | 34 | 338 | 3.0 | 6.0 | 0.06 | 0.40 | 0.00 | 92 | 1022.4 |
| 20260506165828 | 34 | 0 | 3.0 | 6.0 | 0.06 | 0.39 | 0.00 | 93 | 1022.2 |
| 20260506164138 | 33 | 338 | 2.0 | 4.0 | 0.06 | 0.39 | 0.00 | 93 | 1022.2 |
| 20260506163201 | 33 | 338 | 2.0 | 5.0 | 0.06 | 0.38 | 0.00 | 93 | 1022.2 |
| 20260506162401 | 33 | 0 | 4.0 | 7.0 | 0.06 | 0.37 | 0.00 | 93 | 1021.9 |
| 20260506161408 | 33 | 0 | 4.0 | 7.0 | 0.04 | 0.36 | 0.00 | 94 | 1021.6 |
| 20260506160408 | 33 | 338 | 3.0 | 5.0 | 0.03 | 0.35 | 0.00 | 94 | 1021.6 |
| 20260506154653 | 33 | 315 | 3.0 | 9.0 | 0.04 | 0.36 | 0.00 | 94 | 1021.8 |
| 20260506153726 | 33 | 338 | 2.0 | 5.0 | 0.03 | 0.35 | 0.00 | 94 | 1021.6 |
| 20260506152828 | 32 | 338 | 4.0 | 10.0 | 0.02 | 0.35 | 0.00 | 94 | 1021.4 |
| 20260506152017 | 32 | 338 | 2.0 | 5.0 | 0.01 | 0.34 | 0.00 | 94 | 1021.4 |
| 20260506151921 | 32 | 338 | 2.0 | 5.0 | 0.01 | 0.34 | 0.00 | 94 | 1021.4 |
| 20260506151013 | 32 | 315 | 4.0 | 7.0 | 0.01 | 0.35 | 0.00 | 95 | 1021.3 |
| 20260506150355 | 32 | 338 | 3.0 | 8.0 | 0.01 | 0.35 | 0.00 | 95 | 1021.3 |
| 20260506150113 | 32 | 338 | 3.0 | 8.0 | 0.01 | 0.35 | 0.00 | 95 | 1021.3 |
| 20260506145138 | 32 | 0 | 1.0 | 5.0 | 0.00 | 0.35 | 0.00 | 94 | 1021.2 |
| 20260506144313 | 32 | 0 | 0.0 | 0.0 | 0.00 | 0.36 | 0.00 | 95 | 1021.2 |
| 20260506143458 | 32 | 0 | 0.0 | 0.0 | 0.00 | 0.37 | 0.00 | 95 | 1021.0 |
| 20260506142520 | 32 | 0 | 0.0 | 0.0 | 0.00 | 0.38 | 0.00 | 95 | 1020.9 |
| 20260506141558 | 32 | 0 | 0.0 | 0.0 | 0.00 | 0.39 | 0.00 | 95 | 1020.9 |
| 20260506141504 | 32 | 0 | 0.0 | 0.0 | 0.00 | 0.40 | 0.00 | 95 | 1020.9 |
| 20260506140741 | 32 | 0 | 0.0 | 0.0 | 0.00 | 0.40 | 0.00 | 95 | 1020.9 |
| 20260506140005 | 32 | 0 | 0.0 | 0.0 | 0.00 | 0.41 | 0.00 | 95 | 1020.8 |
| 20260506135811 | 32 | 0 | 0.0 | 0.0 | 0.00 | 0.41 | 0.00 | 95 | 1020.8 |
| 20260506135021 | 32 | 0 | 0.0 | 0.0 | 0.00 | 0.42 | 0.00 | 95 | 1020.7 |
| 20260506134948 | 32 | 0 | 0.0 | 0.0 | 0.00 | 0.42 | 0.00 | 95 | 1020.7 |
| 20260506134026 | 32 | 0 | 0.0 | 0.0 | 0.00 | 0.43 | 0.00 | 95 | 1020.6 |
| 20260506133141 | 32 | 0 | 0.0 | 0.0 | 0.00 | 0.43 | 0.00 | 95 | 1020.6 |
| 20260506132243 | 32 | 0 | 0.0 | 0.0 | 0.00 | 0.44 | 0.00 | 95 | 1020.3 |
| 20260506131500 | 32 | 0 | 0.0 | 0.0 | 0.00 | 0.45 | 0.00 | 95 | 1020.1 |
| 20260506131413 | 32 | 0 | 0.0 | 0.0 | 0.00 | 0.45 | 0.00 | 95 | 1020.1 |
| 20260506130443 | 32 | 0 | 0.0 | 0.0 | 0.00 | 0.45 | 0.00 | 95 | 1019.8 |
| 20260506125746 | 32 | 0 | 0.0 | 0.0 | 0.00 | 0.45 | 0.00 | 95 | 1019.9 |
| 20260506125638 | 32 | 0 | 0.0 | 0.0 | 0.00 | 0.45 | 0.00 | 95 | 1019.9 |
| 20260506124648 | 32 | 0 | 0.0 | 0.0 | 0.00 | 0.46 | 0.00 | 95 | 1019.7 |
| 20260506123758 | 32 | 0 | 0.0 | 0.0 | 0.00 | 0.46 | 0.00 | 95 | 1019.7 |
| 20260506123713 | 32 | 0 | 0.0 | 0.0 | 0.00 | 0.46 | 0.00 | 95 | 1019.7 |
| 20260506122849 | 32 | 0 | 0.0 | 0.0 | 0.01 | 0.46 | 0.00 | 95 | 1019.5 |
| 20260506122020 | 32 | 0 | 0.0 | 0.0 | 0.01 | 0.46 | 0.00 | 95 | 1019.6 |
| 20260506121221 | 32 | 0 | 0.0 | 0.0 | 0.01 | 0.47 | 0.00 | 95 | 1019.5 |
| 20260506120303 | 32 | 0 | 0.0 | 0.0 | 0.01 | 0.47 | 0.00 | 95 | 1019.4 |
| 20260506115458 | 32 | 0 | 0.0 | 0.0 | 0.01 | 0.48 | 0.00 | 95 | 1019.3 |
| 20260506114658 | 32 | 0 | 0.0 | 0.0 | 0.01 | 0.48 | 0.00 | 95 | 1019.3 |
| 20260506113813 | 32 | 0 | 0.0 | 0.0 | 0.01 | 0.50 | 0.00 | 95 | 1019.3 |
| 20260506112959 | 32 | 0 | 0.0 | 0.0 | 0.00 | 0.50 | 0.00 | 95 | 1019.1 |
| 20260506112023 | 32 | 0 | 0.0 | 0.0 | 0.00 | 0.50 | 0.00 | 95 | 1018.9 |
| 20260506111401 | 32 | 0 | 0.0 | 0.0 | 0.00 | 0.51 | 0.00 | 95 | 1018.7 |
| 20260506111043 | 32 | 0 | 0.0 | 0.0 | 0.00 | 0.51 | 0.00 | 95 | 1018.7 |
| 20260506105505 | 32 | 0 | 0.0 | 0.0 | 0.00 | 0.52 | 0.00 | 95 | 1018.5 |
| 20260506105258 | 32 | 0 | 0.0 | 0.0 | 0.00 | 0.52 | 0.00 | 95 | 1018.5 |
| 20260506104408 | 32 | 0 | 0.0 | 0.0 | 0.00 | 0.53 | 0.00 | 95 | 1018.4 |
| 20260506103916 | 32 | 0 | 0.0 | 0.0 | 0.00 | 0.53 | 0.00 | 95 | 1018.4 |
| 20260506103520 | 32 | 0 | 0.0 | 0.0 | 0.00 | 0.53 | 0.00 | 95 | 1018.4 |
| 20260506101653 | 32 | 0 | 0.0 | 0.0 | 0.00 | 0.55 | 0.00 | 95 | 1018.3 |
| 20260506100738 | 32 | 0 | 0.0 | 0.0 | 0.00 | 0.56 | 0.00 | 95 | 1018.4 |
| 20260506095005 | 32 | 0 | 0.0 | 0.0 | 0.00 | 0.57 | 0.00 | 95 | 1018.5 |
| 20260506094956 | 32 | 0 | 0.0 | 0.0 | 0.00 | 0.57 | 0.00 | 95 | 1018.5 |
| 20260506094148 | 32 | 0 | 0.0 | 0.0 | 0.00 | 0.57 | 0.00 | 95 | 1018.5 |
| 20260506093914 | 32 | 0 | 0.0 | 0.0 | 0.00 | 0.58 | 0.00 | 95 | 1018.0 |
| 20260506093228 | 32 | 0 | 0.0 | 0.0 | 0.00 | 0.57 | 0.00 | 95 | 1018.3 |
| 20260506092348 | 32 | 0 | 0.0 | 0.0 | 0.00 | 0.58 | 0.00 | 95 | 1018.0 |
| 20260506091916 | 32 | 0 | 0.0 | 0.0 | 0.00 | 0.58 | 0.00 | 95 | 1018.3 |
| 20260506091401 | 32 | 0 | 0.0 | 0.0 | 0.00 | 0.58 | 0.00 | 95 | 1018.3 |